Location: Albany
(35.0000°S, 118.0000°E)
Time: 23:24:14
(UTC-04:00)

ADEOS Rocket - Visible Passes

Search period start: 17 April 2015 00:00
Search period end: 27 April 2015 00:00
Orbit: 859 x 1308 km, 98.7° (Epoch: 16 April)

Date Brightness Start Highest point End Pass type
(mag) Time Alt. Az. Time Alt. Az. Time Alt. Az.
17 Apr 4.8 06:28:40 10° SE 06:32:42 16° E 06:37:16 10° ENE visible
17 Apr 3.5 08:11:18 10° SSE 08:19:07 89° WSW 08:26:54 10° NNW visible
17 Apr 5.7 09:58:56 10° SSW 10:03:44 17° WSW 10:08:09 10° W visible
18 Apr 3.8 07:22:53 10° SSE 07:30:10 43° E 07:37:28 10° NNE visible
18 Apr 4.7 09:08:29 10° S 09:15:29 37° WSW 09:22:22 10° NW visible
18 Apr 5.9 17:38:29 10° ESE 17:40:29 12° ESE 17:42:58 10° SE visible
19 Apr 4.7 06:35:49 10° SE 06:40:43 19° E 06:46:00 10° NE visible
19 Apr 3.6 08:19:08 10° S 08:26:58 79° WSW 08:34:41 10° NNW visible
19 Apr 5.9 10:07:18 10° SSW 10:11:26 15° WSW 10:15:05 10° W visible
20 Apr 3.7 07:30:34 10° SSE 07:38:05 50° E 07:45:31 10° N visible
20 Apr 4.9 09:16:29 10° S 09:23:15 33° WSW 09:29:49 10° NW visible
20 Apr 5.8 17:45:00 10° E 17:48:05 15° ESE 17:51:41 10° SSE visible
21 Apr 4.5 06:43:08 10° SE 06:48:42 22° E 06:54:32 10° NE visible
21 Apr 3.7 08:27:00 10° S 08:34:47 69° WSW 08:42:24 10° NNW visible
21 Apr 6.0 10:15:53 10° SW 10:19:05 13° WSW 10:21:46 10° W visible
22 Apr 3.5 07:38:17 10° SSE 07:45:59 58° E 07:53:30 10° N visible
22 Apr 5.1 09:24:32 10° S 09:31:00 28° WSW 09:37:12 10° WNW visible
22 Apr 5.7 17:51:50 10° E 17:55:42 18° ESE 18:00:07 10° SSE visible
23 Apr 4.4 06:50:35 10° SE 06:56:41 26° E 07:02:54 10° NE visible
23 Apr 3.9 08:34:54 10° S 08:42:36 60° WSW 08:50:04 10° NNW visible
23 Apr 6.1 10:25:10 10° SW 10:26:44 10° WSW 10:27:43 10° WSW visible
24 Apr 3.4 07:46:03 10° SSE 07:53:52 66° E 08:01:25 10° N visible
24 Apr 5.3 09:32:37 10° SSW 09:38:44 25° WSW 09:44:30 10° WNW visible
24 Apr 5.6 17:58:52 10° ENE 18:03:20 21° ESE 18:08:23 10° SSE visible
25 Apr 4.2 06:58:07 10° SE 07:04:39 30° E 07:11:11 10° NNE visible
25 Apr 4.2 08:42:49 10° S 08:50:24 52° WSW 08:57:40 10° NW visible
26 Apr 5.0 06:14:18 11° E 06:14:52 11° E 06:17:24 10° ENE visible
26 Apr 3.4 07:53:50 10° SSE 08:01:44 76° ENE 08:09:16 10° N visible
26 Apr 5.5 09:40:46 10° SSW 09:48:26 19° W 09:51:43 10° WNW visible
26 Apr 5.5 18:06:01 10° ENE 18:10:58 25° ESE 18:16:34 10° SSE visible
